When you browse on this site, cookies collect data to enhance your experience and personalize the content and advertising you see.
Visit our Privacy Policy to learn more. By continuing to use the site, you agree to this use of cookies and data.
  • In Germany
  • List of Countries
  • For 7 days
  • Water Temperature
  • Weather Map
  • Weather Widgets
  • user-avatar
    Login

    Hourly Weather Mendoza

    Today, 2 June, Tuesday

    Time Temperature Precipitation Wind Pressure Humidity
    00:00 +9°C° 0 mm 1 mps 700 mmHg 52%
    01:00 +8°C° 0 mm 0 mps 700 mmHg 53%
    02:00 +9°C° 0 mm 1 mps 699 mmHg 55%
    03:00 +8°C° 0 mm 1 mps 699 mmHg 56%
    04:00 +8°C° 0 mm 1 mps 698 mmHg 58%
    05:00 +8°C° 0 mm 1 mps 698 mmHg 59%
    06:00 +8°C° 0 mm 1 mps 698 mmHg 60%
    07:00 +7°C° 0 mm 1 mps 698 mmHg 61%
    08:00 +10°C° 0 mm 1 mps 698 mmHg 53%
    09:00 +12°C° 0 mm 1 mps 698 mmHg 46%
    10:00 +14°C° 0 mm 1 mps 699 mmHg 38%
    11:00 +15°C° 0 mm 2 mps 698 mmHg 36%
    12:00 +16°C° 0 mm 2 mps 697 mmHg 34%
    13:00 +17°C° 0 mm 3 mps 696 mmHg 32%
    14:00 +17°C° 0 mm 3 mps 696 mmHg 32%
    15:00 +17°C° 0 mm 2 mps 695 mmHg 33%
    16:00 +17°C° 0 mm 2 mps 695 mmHg 34%
    17:00 +15°C° 0 mm 2 mps 695 mmHg 38%
    18:00 +14°C° 0 mm 1 mps 695 mmHg 42%
    19:00 +12°C° 0 mm 1 mps 695 mmHg 47%
    20:00 +11°C° 0 mm 1 mps 695 mmHg 50%
    21:00 +11°C° 0 mm 1 mps 694 mmHg 53%
    22:00 +10°C° 0 mm 1 mps 694 mmHg 56%
    23:00 +9°C° 0 mm 2 mps 694 mmHg 56%

    Tomorrow, 3 June, Wednesday

    Time Temperature Precipitation Wind Pressure Humidity
    00:00 +9°C° 0 mm 3 mps 694 mmHg 56%
    01:00 +8°C° 0 mm 4 mps 694 mmHg 56%
    02:00 +8°C° 0 mm 5 mps 695 mmHg 57%
    03:00 +7°C° 0 mm 6 mps 695 mmHg 59%
    04:00 +6°C° 0 mm 8 mps 695 mmHg 61%
    05:00 +6°C° 0 mm 7 mps 696 mmHg 66%
    06:00 +6°C° 0 mm 7 mps 697 mmHg 71%
    07:00 +6°C° 0 mm 7 mps 698 mmHg 76%
    08:00 +5°C° 0.5 mm 7 mps 698 mmHg 78%
    09:00 +5°C° 0.5 mm 6 mps 699 mmHg 79%
    10:00 +5°C° 0.5 mm 6 mps 699 mmHg 80%
    11:00 +5°C° 1 mm 6 mps 699 mmHg 82%
    12:00 +5°C° 1 mm 6 mps 699 mmHg 83%
    13:00 +5°C° 1 mm 7 mps 699 mmHg 85%
    14:00 +5°C° 0.9 mm 7 mps 700 mmHg 85%
    15:00 +4°C° 0.9 mm 7 mps 700 mmHg 85%
    16:00 +4°C° 0.9 mm 7 mps 701 mmHg 85%
    17:00 +5°C° 0.6 mm 6 mps 701 mmHg 84%
    18:00 +5°C° 0.6 mm 6 mps 702 mmHg 83%
    19:00 +5°C° 0.6 mm 6 mps 702 mmHg 82%
    20:00 +6°C° 0.1 mm 5 mps 703 mmHg 80%
    21:00 +6°C° 0.1 mm 4 mps 703 mmHg 79%
    22:00 +6°C° 0.1 mm 4 mps 703 mmHg 77%
    23:00 +7°C° 0 mm 3 mps 703 mmHg 78%

    Day after tomorrow, 4 June, Thursday

    Time Temperature Precipitation Wind Pressure Humidity
    00:00 +7°C° 0 mm 3 mps 702 mmHg 78%
    01:00 +6°C° 0 mm 2 mps 702 mmHg 78%
    02:00 +6°C° 0 mm 2 mps 702 mmHg 78%
    03:00 +7°C° 0 mm 1 mps 702 mmHg 78%
    04:00 +6°C° 0 mm 0 mps 702 mmHg 78%
    05:00 +7°C° 0 mm 1 mps 702 mmHg 77%
    06:00 +7°C° 0 mm 1 mps 702 mmHg 76%
    07:00 +6°C° 0 mm 2 mps 702 mmHg 74%
    08:00 +7°C° 0 mm 2 mps 702 mmHg 71%
    09:00 +8°C° 0 mm 2 mps 702 mmHg 68%
    10:00 +10°C° 0 mm 3 mps 702 mmHg 65%
    11:00 +10°C° 0 mm 3 mps 701 mmHg 61%
    12:00 +11°C° 0 mm 3 mps 700 mmHg 56%
    13:00 +13°C° 0 mm 2 mps 700 mmHg 51%
    14:00 +13°C° 0 mm 2 mps 699 mmHg 51%
    15:00 +13°C° 0 mm 2 mps 699 mmHg 51%
    16:00 +13°C° 0 mm 2 mps 699 mmHg 51%
    17:00 +12°C° 0 mm 2 mps 699 mmHg 53%
    18:00 +10°C° 0 mm 2 mps 699 mmHg 56%
    19:00 +10°C° 0 mm 1 mps 700 mmHg 59%
    20:00 +9°C° 0 mm 2 mps 700 mmHg 58%
    21:00 +9°C° 0 mm 2 mps 700 mmHg 57%
    22:00 +9°C° 0 mm 2 mps 700 mmHg 56%
    23:00 +8°C° 0 mm 2 mps 700 mmHg 57%

    5 June, Friday

    Time Temperature Precipitation Wind Pressure Humidity
    00:00 +8°C° 0 mm 2 mps 700 mmHg 58%
    01:00 +7°C° 0 mm 2 mps 700 mmHg 59%
    02:00 +7°C° 0 mm 2 mps 700 mmHg 61%
    03:00 +8°C° 0 mm 1 mps 699 mmHg 63%
    04:00 +7°C° 0 mm 1 mps 699 mmHg 66%
    05:00 +7°C° 0 mm 1 mps 699 mmHg 65%
    06:00 +7°C° 0 mm 2 mps 699 mmHg 64%
    07:00 +7°C° 0 mm 2 mps 699 mmHg 63%
    08:00 +9°C° 0 mm 2 mps 699 mmHg 57%
    09:00 +12°C° 0 mm 1 mps 700 mmHg 50%
    10:00 +14°C° 0 mm 1 mps 700 mmHg 44%
    11:00 +15°C° 0 mm 1 mps 699 mmHg 40%
    12:00 +16°C° 0 mm 1 mps 699 mmHg 35%
    13:00 +18°C° 0 mm 1 mps 698 mmHg 31%
    14:00 +16°C° 0 mm 1 mps 698 mmHg 32%
    15:00 +16°C° 0 mm 1 mps 698 mmHg 33%
    16:00 +16°C° 0 mm 1 mps 698 mmHg 35%
    17:00 +14°C° 0 mm 1 mps 698 mmHg 35%
    18:00 +13°C° 0 mm 1 mps 698 mmHg 35%
    19:00 +12°C° 0 mm 1 mps 698 mmHg 35%
    20:00 +12°C° 0 mm 1 mps 698 mmHg 35%
    21:00 +11°C° 0 mm 1 mps 698 mmHg 35%
    22:00 +10°C° 0 mm 2 mps 698 mmHg 35%
    23:00 +10°C° 0 mm 2 mps 698 mmHg 36%

    6 June, Saturday

    Time Temperature Precipitation Wind Pressure Humidity
    00:00 +9°C° 0 mm 2 mps 697 mmHg 38%
    01:00 +9°C° 0 mm 2 mps 697 mmHg 40%
    02:00 +9°C° 0 mm 2 mps 697 mmHg 42%
    03:00 +9°C° 0 mm 1 mps 696 mmHg 45%
    04:00 +9°C° 0 mm 1 mps 696 mmHg 47%
    05:00 +9°C° 0 mm 1 mps 696 mmHg 48%
    06:00 +8°C° 0 mm 2 mps 696 mmHg 49%
    07:00 +8°C° 0 mm 2 mps 696 mmHg 50%
    08:00 +10°C° 0 mm 2 mps 696 mmHg 44%
    09:00 +13°C° 0 mm 2 mps 697 mmHg 39%
    10:00 +15°C° 0 mm 2 mps 697 mmHg 34%
    11:00 +16°C° 0 mm 2 mps 696 mmHg 31%
    12:00 +17°C° 0 mm 2 mps 696 mmHg 27%
    13:00 +20°C° 0 mm 1 mps 696 mmHg 24%
    14:00 +19°C° 0 mm 1 mps 696 mmHg 26%
    15:00 +19°C° 0 mm 1 mps 696 mmHg 29%
    16:00 +18°C° 0 mm 1 mps 696 mmHg 31%
    17:00 +16°C° 0 mm 1 mps 697 mmHg 31%
    18:00 +15°C° 0 mm 1 mps 697 mmHg 31%
    19:00 +14°C° 0 mm 2 mps 697 mmHg 31%
    20:00 +13°C° 0 mm 2 mps 698 mmHg 30%
    21:00 +13°C° 0 mm 2 mps 698 mmHg 29%
    22:00 +13°C° 0 mm 2 mps 698 mmHg 28%
    23:00 +13°C° 0 mm 2 mps 699 mmHg 29%

    7 June, Sunday

    Time Temperature Precipitation Wind Pressure Humidity
    00:00 +12°C° 0 mm 2 mps 699 mmHg 29%
    01:00 +12°C° 0 mm 2 mps 699 mmHg 30%
    02:00 +10°C° 0 mm 3 mps 700 mmHg 33%
    03:00 +10°C° 0 mm 4 mps 700 mmHg 37%
    04:00 +8°C° 0 mm 5 mps 700 mmHg 40%
    05:00 +8°C° 0 mm 4 mps 700 mmHg 42%
    06:00 +7°C° 0 mm 4 mps 701 mmHg 43%
    07:00 +8°C° 0 mm 3 mps 701 mmHg 45%
    08:00 +10°C° 0 mm 3 mps 701 mmHg 42%
    09:00 +11°C° 0 mm 3 mps 701 mmHg 40%
    10:00 +13°C° 0 mm 2 mps 701 mmHg 37%
    11:00 +14°C° 0 mm 2 mps 700 mmHg 37%
    12:00 +15°C° 0 mm 2 mps 700 mmHg 37%
    13:00 +15°C° 0 mm 1 mps 699 mmHg 37%
    14:00 +15°C° 0 mm 1 mps 699 mmHg 38%
    15:00 +15°C° 0 mm 1 mps 699 mmHg 38%
    16:00 +15°C° 0 mm 1 mps 698 mmHg 39%
    17:00 +14°C° 0 mm 1 mps 698 mmHg 42%
    18:00 +13°C° 0 mm 1 mps 699 mmHg 44%
    19:00 +11°C° 0 mm 1 mps 699 mmHg 47%
    20:00 +11°C° 0 mm 1 mps 698 mmHg 47%
    21:00 +11°C° 0 mm 1 mps 698 mmHg 47%
    22:00 +10°C° 0 mm 1 mps 698 mmHg 47%
    23:00 +10°C° 0 mm 1 mps 698 mmHg 47%
    Show more